Lakeville, MN

3:24 PM CDT on October 01, 2016 (GMT -0500)
Airlake

Weather History for KLVN - February, 2013

Change the Weather History Date:

Saturday, February 16, 2013

  Actual Average Record
Temperature  
Mean Temperature 5 °F -  
Max Temperature 14 °F 25 °F 59 °F (1981)
Min Temperature -4 °F 8 °F -22 °F (1967)
Degree Days  
Heating Degree Days 60    
Moisture  
Dew Point 0 °F    
Average Humidity 83    
Maximum Humidity 92    
Minimum Humidity 62    
Precipitation  
Precipitation 0.00 in - - ()
Sea Level Pressure  
Sea Level Pressure 30.17 in    
Wind  
Wind Speed 4 mph (West)    
Max Wind Speed 9 mph    
Max Gust Speed -    
Visibility 8 miles    
Events Snow    
Averages and records for this station are not official NWS values.
T = Trace of Precipitation, MM = Missing Value Source: NWS Daily Summary

Daily Weather History Graph

Daily Weather History Graph

Search for Another Location

Airport or City:

Trip Planner

Search our weather history database for the weather conditions in past years. The results will help you decide how hot, cold, wet, or windy it might be!

Date:

Astronomy

Feb. 16, 2013 Rise Set
Actual Time 7:11 AM CST 5:43 PM CST
Civil Twilight 6:41 AM CST 6:13 PM CST
Nautical Twilight 6:07 AM CST 6:47 PM CST
Astronomical Twilight 5:33 AM CST 7:21 PM CST
Moon 10:06 AM CST (2/16) 12:00 AM CST (2/16)
Length of Visible Light 11h 31m
Length of Day
10h 32m
Waxing Crescent, 39% of the Moon is Illuminated
Feb 16
Waxing Crescent
Feb 17
First Quarter
Feb 25
Full
Mar 4
Last Quarter
Mar 11
New

Hourly Weather History & Observations

Time (CST) Temp. Windchill Dew Point Humidity Pressure Visibility Wind Dir Wind Speed Gust Speed Precip Events Conditions
12:06 AM 1.4 °F -11.3 °F -2.2 °F 85% 30.24 in 10.0 mi West 6.9 mph - N/A   Clear
12:27 AM 1.4 °F -11.3 °F -2.2 °F 85% 30.24 in 10.0 mi West 6.9 mph - N/A   Clear
12:47 AM -0.4 °F -14.7 °F -2.2 °F 92% 30.24 in 10.0 mi West 8.1 mph - N/A   Clear
1:06 AM -0.4 °F -14.7 °F -2.2 °F 92% 30.24 in 10.0 mi West 8.1 mph - N/A   Clear
1:27 AM -0.4 °F -14.7 °F -4.0 °F 85% 30.23 in 10.0 mi West 8.1 mph - N/A   Clear
1:47 AM -0.4 °F -14.7 °F -4.0 °F 85% 30.24 in 10.0 mi West 8.1 mph - N/A   Clear
2:07 AM -2.2 °F -16.8 °F -4.0 °F 92% 30.23 in 10.0 mi West 8.1 mph - N/A   Clear
2:27 AM -2.2 °F -16.8 °F -5.8 °F 85% 30.23 in 10.0 mi West 8.1 mph - N/A   Clear
2:47 AM -2.2 °F -18.0 °F -5.8 °F 85% 30.22 in 10.0 mi West 9.2 mph - N/A   Clear
3:07 AM -2.2 °F -18.0 °F -5.8 °F 85% 30.22 in 10.0 mi West 9.2 mph - N/A   Clear
3:26 AM -2.2 °F -16.8 °F -5.8 °F 85% 30.21 in 10.0 mi West 8.1 mph - N/A   Clear
3:47 AM -4.0 °F -16.3 °F -5.8 °F 92% 30.20 in 10.0 mi WNW 5.8 mph - N/A   Clear
4:07 AM -2.2 °F -12.5 °F -5.8 °F 85% 30.20 in 10.0 mi West 4.6 mph - N/A   Scattered Clouds
4:26 AM -2.2 °F -12.5 °F -4.0 °F 92% 30.20 in 10.0 mi West 4.6 mph - N/A   Overcast
4:47 AM -0.4 °F -12.0 °F -2.2 °F 92% 30.19 in 10.0 mi West 5.8 mph - N/A   Overcast
5:06 AM -0.4 °F -8.3 °F -2.2 °F 92% 30.19 in 7.0 mi West 3.5 mph - N/A Snow Light Snow
5:27 AM 1.4 °F -8.3 °F -2.2 °F 85% 30.20 in 7.0 mi West 4.6 mph - N/A   Overcast
5:46 AM 1.4 °F -8.3 °F -0.4 °F 92% 30.19 in 7.0 mi West 4.6 mph - N/A Snow Light Snow
6:07 AM 1.4 °F -9.9 °F -0.4 °F 92% 30.19 in 7.0 mi West 5.8 mph - N/A   Overcast
6:27 AM 1.4 °F -9.9 °F -2.2 °F 85% 30.19 in 7.0 mi West 5.8 mph - N/A Snow Light Snow
6:47 AM -0.4 °F -8.3 °F -2.2 °F 92% 30.19 in 5.0 mi West 3.5 mph - N/A Snow Light Snow
7:07 AM -0.4 °F - -2.2 °F 92% 30.19 in 5.0 mi Calm Calm - N/A   Scattered Clouds
7:27 AM -0.4 °F - -2.2 °F 92% 30.19 in 5.0 mi Calm Calm - N/A Snow Light Snow
7:47 AM -0.4 °F - -2.2 °F 92% 30.20 in 5.0 mi Calm Calm - N/A Snow Light Snow
8:07 AM -0.4 °F -8.3 °F -2.2 °F 92% 30.20 in 5.0 mi West 3.5 mph - N/A Snow Light Snow
8:27 AM 1.4 °F - -2.2 °F 85% 30.20 in 3.0 mi Calm Calm - N/A Snow Light Snow
8:46 AM 1.4 °F - -0.4 °F 92% 30.19 in 3.0 mi Calm Calm - N/A Snow Light Snow
9:07 AM 3.2 °F - 1.4 °F 92% 30.19 in 2.5 mi Calm Calm - N/A Snow Light Snow
9:27 AM 6.8 °F - 1.4 °F 79% 30.19 in 1.8 mi Calm Calm - N/A Snow Light Snow
9:46 AM 6.8 °F -0.1 °F 1.4 °F 79% 30.19 in 2.0 mi West 3.5 mph - N/A Snow Light Snow
10:07 AM 8.6 °F - 3.2 °F 79% 30.18 in 2.5 mi Calm Calm - N/A Snow Light Snow
10:27 AM 8.6 °F - 3.2 °F 79% 30.18 in 1.5 mi Calm Calm - N/A Snow Light Snow
10:47 AM 10.4 °F - 3.2 °F 73% 30.18 in 4.0 mi Calm Calm - N/A Snow Light Snow
11:06 AM 10.4 °F - 3.2 °F 73% 30.18 in 10.0 mi Calm Calm - N/A   Clear
11:27 AM 10.4 °F 4.0 °F 3.2 °F 73% 30.18 in 10.0 mi East 3.5 mph - N/A   Clear
11:47 AM 10.4 °F - 3.2 °F 73% 30.18 in 10.0 mi Calm Calm - N/A   Clear
12:06 PM 10.4 °F - 3.2 °F 73% 30.17 in 10.0 mi Calm Calm - N/A   Clear
12:27 PM 10.4 °F - 3.2 °F 73% 30.16 in 10.0 mi Calm Calm - N/A   Clear
12:47 PM 12.2 °F - 3.2 °F 67% 30.16 in 10.0 mi Calm Calm - N/A   Clear
1:06 PM 12.2 °F - 3.2 °F 67% 30.16 in 10.0 mi Calm Calm - N/A   Clear
1:27 PM 12.2 °F - 3.2 °F 67% 30.15 in 10.0 mi Calm Calm - N/A   Clear
1:47 PM 12.2 °F - 3.2 °F 67% 30.14 in 10.0 mi Calm Calm - N/A   Clear
2:06 PM 12.2 °F - 3.2 °F 67% 30.14 in 10.0 mi Calm Calm - N/A   Clear
2:27 PM 14.0 °F 8.2 °F 5.0 °F 67% 30.13 in 10.0 mi SSE 3.5 mph - N/A   Clear
2:47 PM 14.0 °F - 3.2 °F 62% 30.14 in 10.0 mi Calm Calm - N/A   Clear
3:06 PM 12.2 °F - 3.2 °F 67% 30.14 in 10.0 mi Calm Calm - N/A   Clear
3:27 PM 12.2 °F - 5.0 °F 73% 30.14 in 10.0 mi Calm Calm - N/A   Clear
3:46 PM 12.2 °F - 5.0 °F 73% 30.14 in 10.0 mi Calm Calm - N/A   Clear
4:07 PM 12.2 °F 6.1 °F 5.0 °F 73% 30.13 in 10.0 mi ESE 3.5 mph - N/A   Clear
4:27 PM 12.2 °F 6.1 °F 5.0 °F 73% 30.14 in 10.0 mi ESE 3.5 mph - N/A   Clear
4:46 PM 12.2 °F 6.1 °F 5.0 °F 73% 30.14 in 10.0 mi East 3.5 mph - N/A   Clear
5:07 PM 10.4 °F - 3.2 °F 73% 30.14 in 10.0 mi Calm Calm - N/A   Clear
5:27 PM 10.4 °F - 3.2 °F 73% 30.14 in 10.0 mi Calm Calm - N/A   Clear
5:46 PM 8.6 °F 2.0 °F 3.2 °F 79% 30.14 in 10.0 mi ESE 3.5 mph - N/A   Clear
6:06 PM 8.6 °F - 3.2 °F 79% 30.14 in 10.0 mi Calm Calm - N/A   Clear
6:27 PM 8.6 °F 2.0 °F 3.2 °F 79% 30.15 in 10.0 mi ESE 3.5 mph - N/A   Clear
6:47 PM 8.6 °F - 3.2 °F 79% 30.14 in 10.0 mi Calm Calm - N/A   Clear
7:06 PM 6.8 °F - 1.4 °F 79% 30.14 in 10.0 mi Calm Calm - N/A   Clear
7:27 PM 6.8 °F - 3.2 °F 85% 30.13 in 10.0 mi Calm Calm - N/A   Clear
7:47 PM 6.8 °F - 3.2 °F 85% 30.12 in 10.0 mi Calm Calm - N/A   Clear
8:06 PM 1.4 °F - -0.4 °F 92% 30.13 in 10.0 mi Calm Calm - N/A   Clear
8:27 PM 3.2 °F - 1.4 °F 92% 30.13 in 10.0 mi Calm Calm - N/A   Clear
8:47 PM -0.4 °F - -2.2 °F 92% 30.13 in 10.0 mi Calm Calm - N/A   Clear
9:06 PM 1.4 °F - -0.4 °F 92% 30.13 in 10.0 mi Calm Calm - N/A   Clear
9:27 PM 1.4 °F - -0.4 °F 92% 30.13 in 10.0 mi Calm Calm - N/A   Clear
9:46 PM 1.4 °F - -0.4 °F 92% 30.12 in 10.0 mi Calm Calm - N/A   Clear
10:07 PM 1.4 °F - -0.4 °F 92% 30.12 in 10.0 mi Calm Calm - N/A   Clear
10:27 PM 1.4 °F - -0.4 °F 92% 30.11 in 10.0 mi Calm Calm - N/A   Clear
10:46 PM 1.4 °F - -0.4 °F 92% 30.11 in 10.0 mi Calm Calm - N/A   Clear
11:07 PM 1.4 °F - -0.4 °F 92% 30.10 in 7.0 mi Calm Calm - N/A   Clear
11:27 PM 1.4 °F - -2.2 °F 85% 30.10 in 10.0 mi Calm Calm - N/A   Clear
11:46 PM -0.4 °F - -2.2 °F 92% 30.09 in 7.0 mi Calm Calm - N/A   Scattered Clouds